COSMOS 397 DEB, 5042

Orbit data source: Space-Track

COSMOS 397 DEB, 5042 is space debris in LEO originally from a launch on Thu, 25 Feb 1971 UTC launched from the Tyuratam Missile And Space Complex (TTMTR). Debris objects in space refer to the collection of defunct objects orbiting the Earth. Examples of debris include non-operational satellites, rocket bodies, and fragments generated from explosions, collisions, or faulty payload assembly.

Loading next visibility...
Identifier
5042, 1971-015P
Orbit
LEO
Country
Flag of CISCIS
Related business
Manufacturer
Unknown
Mission
Spacecraft
Bus & Motor
Unknown
Mass
Unknown
Launch date (UTC)
1971-02-25 (55 years ago)
Launch vehicle
Unknown
Launch site
Tyuratam Missile And Space Complex (TTMTR)
Object type
Payload
Rocket body
Debris
Shape & HBR
Unknown shape, 0.1 m
Radar Cross Section
Small (<0.1 m²)

Expand to show TLE details & history
Last TLE update: 18 hours ago

TLE from 18 hours ago
0 COSMOS 397 DEB
1 05042U 71015P   25348.88221402  .00008243  00000-0  20604-2 0  9995
2 05042  65.6082 286.2822 0559592  27.7403 335.2352 13.85983801626551
Epoch: 2025-12-14T21:10Z
TLE epoch observation values (Epoch: 2025-12-14T21:10:23.291Z)
Latitude
0.00006°
Longitude
-115.10358°
Altitude
577.031 km
Speed
7.76 km/s
True Right ascension
19h 05m 07s
True Declination
0° 00' 00"
Sunlit
Object was in daylight at epoch
Visualization orbit readout
Latitude
Unknown
Longitude
Unknown
Altitude
Unknown
Speed
Unknown
Apparent Right ascension
Unknown
Apparent Declination
Unknown
Sunlit
N/A
Visualization observer readout
Local Sidereal Time
13:18:57
Azimuth
Unknown
Elevation
Unknown
Doppler factor
Unknown
Orbital elements
Apogee altitude
1,350.856 km
Perigee altitude
531.68 km
Semi-major axis
7,319.405 km
Eccentricity
0.05596
Inclination
65.6082°
RAAN
286.2822°
Arg. of periapsis
27.7403°
True anomaly
332.36862°
Mean anomaly
335.2352°
Eccentric anomaly
333.82067°
Mean motion
3.46601 °/min
Orbital period
103.87 mins
BSTAR
0.0020604
Loading maneuver chart data...
Computing Atmospheric mass density...
Loading historical data...
Loading historical data...
Loading historical data...
Loading historical data...
Loading historical data...
Loading historical data...
Loading historical data...

Documentation

Showing up to 5 results
|